Regional Weather Roundup
Issued by NWS Pendleton, OR

Home | Current Version | Previous Version | Text Only | Print | Product List | Glossary On
Versions: 1 2 3 4 5 6 7 8 9 10 11 12 13 14 15 16 17 18 19 20 21 22 23 24 25 26 27 28 29 30 31 32 33 34 35 36 37 38 39 40 41 42 43 44 45 46 47 48 49 50
000
ASUS46 KPDT 292325
RWRPDT
PENDLETON REGIONAL WEATHER ROUNDUP
NATIONAL WEATHER SERVICE PENDLETON OREGON
400 PM PDT TUE JUL 29 2014

NOTE: FAIR INDICATES FEW OR NO CLOUDS BELOW 12,000 FEET WITH NO
SIGNIFICANT WEATHER AND/OR OBSTRUCTIONS TO VISIBILITY.

# INDICATES UNOFFICIAL STATION AND DATA

WAZ520-300010-
EAST SLOPES OF WASHINGTON CASCADES

CITY            SKY/WX      TMP DP  RH  WIND    PRES   REMARKS
#BUMPING DAM    N/A         87  N/A N/A S2      N/A
#CLE ELUM HS    N/A         90  47  23  W8      29.98F HX 87
#CLE ELUM LAKE  N/A         89  52  28  W1      29.90F
#CLIFFDEL 2NW   N/A         92  36  14  NW7     N/A    HX 88
#GLENWOOD       N/A         94  60  32  S6      29.89F HX 94
#MANASTASH CYN  N/A         90  49  25  NW1     30.05F HX 87
#NELSON         N/A         90  52  27  W1      29.93F HX 87
#NELSON 3SW     N/A         90  39  17  E1      30.11F HX 86
#NILE           N/A         97  38  13  W7      29.17F HX 92
#RONALD 2NW     N/A         90  55  31  NW2     29.96F HX 88
#TROUT LAKE 1NE N/A         95  51  23  NW3     29.89F HX 92
$$

WAZ521-300010-
SIMCOE HIGHLANDS

CITY            SKY/WX      TMP DP  RH  WIND    PRES   REMARKS
#BICKLETON HS   N/A         95  18   6  W7      30.09F HX 90
#CENTERVILLE 1SWN/A         98  47  18  W9      29.85F HX 94
#GOLDENDALE 1NE N/A         97  26   8  SW6     N/A    HX 92
#GOLDENDALE 1S  N/A         99  48  18  SW5     29.96F HX 96
#GOLDENDALE 5WNWN/A         97  50  21  SW12    29.86F HX 94
#GOODNOE HILLS  N/A         104 45  14  W16     29.88F HX 100
#LYLE 6NE       N/A         88  57  35  SW10    29.87F
$$

WAZ026-300010-
KITTITAS VALLEY

CITY            SKY/WX      TMP DP  RH  WIND    PRES   REMARKS
ELLENSBURG AP   SUNNY       102 47  16  W7      29.99F HX 98
#ELLENSBURG CWU N/A         100 47  17  W6      29.83F HX 96
#ELLENSBURG 3NE N/A         96  51  22  NW5     29.98F HX 93
#ELLENSBURG 1E  N/A         101 45  15  CALM    N/A    HX 97
#KITTITAS 3S    N/A         93  61  35  N2      29.85F HX 93
#THORP 6N       N/A         92  42  18  NW17G24 29.91F HX 88
$$

WAZ027-300010-
YAKIMA VALLEY

CITY            SKY/WX      TMP DP  RH  WIND    PRES   REMARKS
YAKIMA AIRPORT  SUNNY       103 41  12  E3      29.93F HX 98
YAKIMA-VAGABOND SUNNY       101 37  11  NW6     29.95F HX 96
#COWICHE 1N     N/A         93  56  29  NE1     30.09F HX 91
#DONALD 2NE     N/A         74  45  35  S1      30.32S
#GRANDVIEW      N/A         99  47  17  CALM    29.86F HX 95
#MABTON         N/A         98  60  29  N7      29.89F HX 98
#MOXEE 2E       N/A         100 12   4  CALM    29.81F HX 94
#NACHES 2SW     N/A         98  50  20  E1      30.01F HX 95
#OUTLOOK DOT    N/A         N/A N/A N/A E6      N/A
#SELAH 8E       N/A         101 37  11  W7      N/A    HX 96
#TERRACE HTS    N/A         102 46  15  S2      29.82F HX 98
#TOPPENISH      N/A         98  57  26  CALM    29.78F HX 97
#WAPATO 4NE     N/A         74  45  35  S1      30.32S
#WEST VALLEY    N/A         100 42  14  CALM    29.83F HX 96
#W YAKIMA       N/A         100 46  16  E2      29.84F HX 96
#WHITE SWAN 5E  N/A         96  65  36  NE3     29.86F HX 99
#WILEY CITY 3W  N/A         97  38  13  CALM    29.95F HX 92
$$

WAZ028-300010-
LOWER COLUMBIA BASIN...WASHINGTON

CITY            SKY/WX      TMP DP  RH  WIND    PRES   REMARKS
PASCO           SUNNY       104 50  17  N5      29.89F HX 101
PROSSER AWOS    N/A         100 52  20  N5      29.91F HX 97
RICHLAND AWOS   SUNNY       102 48  16  E6      29.88F HX 98
#BASIN CITY 5SW N/A         98  69  39  CALM    29.91F HX 104
#BENTON CITY    N/A         100 53  21  E2      29.75F HX 98
#CONNELL 5N     N/A         103 33   9  W3      29.86F HX 97
#CONNELL 5NW    N/A         99  64  32  NW1     29.83F HX 102
#ELTOPIA 6NW    N/A         104 65  29  CALM    28.90F HX 109
#KENNEWICK 3S   N/A         101 59  25  CALM    29.86F HX 101
#PASCO-BROADMOORN/A         105 37  10  NE1     29.74F HX 100
#PATERSON       N/A         102 44  14  S2      29.84F HX 98
#PROSSER        N/A         104 47  15  N2      29.84F HX 100
#SAGEMOOR 2W    N/A         100 61  28  CALM    29.72F HX 101
#TOUCHET 2S     N/A         102 53  20  N1      29.85F HX 100
#WEST PASCO     N/A         105 61  24  N1      29.87F HX 107
$$

WAZ029-300010-
FOOTHILLS OF THE BLUES...WASHINGTON

CITY            SKY/WX      TMP DP  RH  WIND    PRES   REMARKS
WALLA WALLA AP  SUNNY       104 39  11  W7      29.94F HX 99
#COLLEGE PLACE  N/A         109 53  16  SW2     29.89F HX 107
#DAYTON SCHOOL  N/A         101 43  14  S1      29.94F HX 97
#LOWDEN 2SE     N/A         102 55  21  W6      29.85F HX 101
#PLEASANT VIEW 1N/A         101 29   8  N1      29.88F HX 95
#PRESCOTT       N/A         104 41  12  CALM    29.82F HX 99
#SUDBURY        N/A         103 N/A N/A N3      N/A
#WHITMAN COLLEGEN/A         101 50  18  S1      29.89F HX 98
#WAITSBURG 8N   N/A         107 36   9  S3      29.79F HX 101
#WALLA WALLA 5E N/A         107  1   2  S15     N/A    HX 99
#WALLA WALLA U  N/A         103 50  17  W9      29.84F HX 100
#WHITMAN MISSIONN/A         102 56  22  W3      29.85F HX 101
$$

WAZ030-300010-
BLUE MOUNTAINS...WASHINGTON

CITY            SKY/WX      TMP DP  RH  WIND    PRES   REMARKS
$$

ORZ009-041-WAZ024-300010-
COLUMBIA RIVER GORGE

CITY            SKY/WX      TMP DP  RH  WIND    PRES   REMARKS
HOOD RIVER AP   SUNNY       91  55  30  NW13    29.96S HX 89
THE DALLES AP   PTCLDY      95  55  26  N18G26  29.90F HX 93
#ARLINGTON AIRPON/A         103 38  11  W12     N/A    HX 98
#ARLINGTON HS   N/A         106 41  11  N3      29.73F HX 101
#CELILO DOT     N/A         102 57  23  N5      N/A    HX 102
#MOSIER 1S      N/A         90  43  20  NW6     30.00F HX 86
#MURDOCK        N/A         93  58  31  NW17    29.90F HX 92
#RUFUS DOT      N/A         101 55  22  SW5     N/A    HX 100

$$

ORZ510-300010-
NORTH CENTRAL OREGON

CITY            SKY/WX      TMP DP  RH  WIND    PRES   REMARKS
#CHENOWITH 1W   N/A         89  49  25  NW20    N/A
#COW CYN RST AREN/A         92  35  13  NW8     N/A    HX 88
#DUFUR 9E       N/A         90  39  17  NW16G25 29.93S HX 86
#GRASS VALLEY 1SN/A         93  43  18  N3      29.93S HX 89
#KENT DOT       N/A         95  39  14  NW8     N/A    HX 91
#MAUPIN SCHOOL  N/A         101 39  12  NE6     29.95F HX 96
#MORO SCHOOL    N/A         94  48  21  W8      30.01F HX 91
#SHANIKO 5WSW   N/A         91  37  15  NW10    N/A    HX 87
#SHANIKO 4NW    N/A         90  32  13  N12     30.13F HX 86
#TYGH VALLEY 2NEN/A         100 47  17  N10     29.87F HX 96
#WAPANITIA AIRPON/A         98  41  14  NW1     29.88F HX 93
#WASCO DOT      N/A         101 51  19  SW7     N/A    HX 98
#WASCO AIRPORT  N/A         99  29   9  NW10    N/A    HX 94
#WASCO 5NE      N/A         101 43  14  W5      29.86F HX 97
$$

ORZ511-300010-
CENTRAL OREGON

CITY            SKY/WX      TMP DP  RH  WIND    PRES   REMARKS
BEND AIRPORT    THUNDER     86  39  19  W14     30.14R
MADRAS AIRPORT  MOCLDY      93  36  14  NW8     30.06F HX 89
REDMOND AIRPORT MOCLDY      91  38  16  W18     30.09R HX 87
#BEND 6E        N/A         85  38  19  CALM    29.86R
#BEND 1SW       N/A         83  38  20  W1      N/A
#BEND-AWBREY    N/A         85  47  27  SE1     29.92R
#BEND-KIM LN    N/A         88  47  24  NW7     30.10F
#CULVER         N/A         90  49  25  CALM    30.03S HX 87
#LAKE BILLY CHINN/A         91  11   5  CALM    30.07S HX 87
#POWELL BUTTE 3EN/A         89  52  28  NW6     N/A
#POWELL BUTTE   N/A         89  47  24  N10     29.75R
#PRINEVILLE 3N  N/A         90  47  23  SW20G26 29.83S HX 87


ORZ509-300010-
EAST SLOPES OF OREGON CASCADES

CITY            SKY/WX      TMP DP  RH  WIND    PRES   REMARKS
#BLUE BOX PASS  N/A         85  26  12  W2      N/A
#BLACK BUTTE RNCN/A         81  54  39  CALM    29.93R
#CAMP SHERMAN   N/A         91  42  18  CALM    29.94F HX 87
#LA PINE DOT    N/A         86  36  17  NW10    N/A
#LA PINE 4NW    N/A         82  48  31  N6      29.98R
#LAVA BUTTE DOT N/A         85  43  23  W1      N/A
#SISTERS AIRPOR N/A         82  56  41  N8      30.10F
#SISTERS ODOT   N/A         78  N/A N/A E1      N/A
#SISTERS 1NW    N/A         81  47  30  S5      N/A
#SISTERS 3N     N/A         81  43  26  CALM    N/A
#SUNRIVER       N/A         79  58  49  S5      29.91R
#SUNRIVER AP    N/A         83  46  27  CALM    29.92R
#SUTTLE LK DOT  N/A         81  50  34  W16     N/A
#TUMALO 3W      N/A         81  43  26  W12     29.78F
#WANOGA BUTTE D N/A         62  46  56  SW3     N/A

$$

ORZ044-300010-
LOWER COLUMBIA BASIN...OREGON

CITY            SKY/WX      TMP DP  RH  WIND    PRES   REMARKS
HERMISTON       SUNNY       104 48  15  VRB6    29.90F HX 100
#BOARDMAN SCHOOLN/A         104 43  13  CALM    29.85F HX 100
#BOARDMAN 3W    N/A         102 60  25  NE3     29.56F HX 103
#BOARDMAN 8SW   N/A         104 47  15  N3      29.85F HX 100
#IONE SCHOOL    N/A         101 37  11  W3      29.91F HX 96
#IRRIGON 4NW    N/A         102 42  13  N3      N/A    HX 97
#UMATILLA SCHOOLN/A         107 64  25  N5      29.94F HX 111
#UMATILLA       N/A         104 50  17  CALM    29.85F HX 101
$$

ORZ507-300010-
NORTHERN FOOTHILLS OF THE BLUES

CITY            SKY/WX      TMP DP  RH  WIND    PRES   REMARKS
PENDLETON AIRPT SUNNY       103 38  11  N7      29.95F HX 98
#ADAMS 3WNW     N/A         100 42  14  NW7     29.85F HX 96
#ATHENA         N/A         99  43  15  CALM    29.89F HX 95
#HELIX SCHOOL   N/A         98  39  13  VRB5    29.87F HX 93
#HELIX 3N       N/A         97  36  12  NW7     29.96F HX 92
#HELIX 6SW      N/A         100 42  14  NW2     29.95F HX 96
#HOLDMAN 5SE    N/A         102 42  13  W3      29.96F HX 97
#HOLDMAN 6E     N/A         101 43  14  S3      29.68F HX 97
#M-F FERNDALE   N/A         109 58  19  CALM    29.91F HX 110
#M-F GROVE ELEM N/A         101 43  14  N1      29.93F HX 97
#M-FREEWATER 5SEN/A         100 59  26  W3      29.94F HX 100
#PDT AQUATIC CTRN/A         99  45  16  CALM    29.89S HX 95
#PENDLETON DNTN N/A         102 49  17  NW3     29.89F HX 99
#PENDLETON 5NE  N/A         104 49  16  NW1     29.89F HX 101
#PDT SUNRIDGE   N/A         103 43  13  W2      29.93F HX 99
#PENDLETON 7NW  N/A         98  59  28  SW2     29.39S HX 98
#PILOT ROCK     N/A         98  46  17  N6      29.99F HX 94
#TUTUILLA       N/A         101 46  16  N2      29.81F HX 97
#UMAPINE 2E     N/A         101 56  23  SW1     29.87F HX 100
#WESTON SCHOOL  N/A         97  40  14  E5      29.95F HX 92

$$

ORZ508-300010-
SOUTHERN FOOTHILLS OF THE BLUES

CITY            SKY/WX      TMP DP  RH  WIND    PRES   REMARKS
#AJAX           N/A         N/A N/A N/A N9      29.95
#CONDON SCHOOL  N/A         96  35  12  N6      30.02F HX 91
#CONDON 5W      N/A         92  32  12  N10     30.07F HX 88
#FOSSIL SCHOOL  N/A         96  35  12  N7      30.01F HX 91
#HEPPNER EOC    N/A         100 38  12  NW6     29.82F HX 95
#HEPPNER 4NE    N/A         94  39  15  NE6     29.86F HX 90
#LEXINGTON 2SE  N/A         102 42  13  N1      29.93F HX 97
#MIKKALO        N/A         100 40  13  N6      30.00F HX 95
#OLEX 4N        N/A         101 39  12  N1      29.91F HX 96
#RUGGS 5NE      N/A         101 -2   2  N2      30.23F HX 95
#RUGGS 2SW      N/A         96  33  11  N7      29.91F HX 91

$$

ORZ502-503-300010-
BLUE MOUNTAINS

CITY            SKY/WX      TMP DP  RH  WIND    PRES   REMARKS
MEACHAM         PTCLDY      91  42  18  VRB5    30.13F HX 87
#BATTLE MTN DOT N/A         89  56  33  N5      N/A
#HARDMAN 10S    N/A         92  36  14  N7      30.20F HX 88
#HEPPNER 15SE   N/A         91  40  17  W1      30.09F HX 87
#LADD CYN SMT   N/A         92  42  18  N5      N/A    HX 88
#LADD CREEK ODOTN/A         94  54  26  NE2     N/A    HX 92
#LONG CREEK HS  N/A         89  35  15  N13     30.04F
#N POWDER DOT   N/A         87  57  36  N7      N/A
#PIKES PEAK     N/A         90  45  21  N3      27.99S HX 86
#TROY SCHOOL    N/A         101 46  16  SW2     29.69F HX 97
#UKIAH          N/A         90  43  20  N7      29.95F HX 86
#WESTON 4E      N/A         95  43  17  CALM    29.82F HX 91
$$

ORZ505-300010-
JOHN DAY BASIN

CITY            SKY/WX      TMP DP  RH  WIND    PRES   REMARKS
JOHN DAY        CLOUDY      88  39  18  S10     30.12R
#MONUMENT HS    N/A         99  41  14  N6      29.72S HX 95
#MT. VERNON 5SE N/A         84  43  24  E12G28  30.09R
#WINLOCK        N/A         97  37  12  S6      30.14F HX 92
$$

ORZ506-300010-
OCHOCO AND JOHN DAY HIGHLANDS

CITY            SKY/WX      TMP DP  RH  WIND    PRES   REMARKS
#BUCK CREEK DOT N/A         78  51  39  NW20    N/A
#HORSE RIDGE DO N/A         85  35  17  NW10    N/A
#KEYES SMT DOT  N/A         90  33  13  N3      N/A    HX 86
#PINE MTN OBS   N/A         75  35  23  E6      N/A
#PRAIRIE CITY   N/A         81  44  27  E7      29.90R
#SENECA 9NW     N/A         81  42  25  SE1     29.89R
$$

ORZ049-300010-
GRANDE RONDE VALLEY

CITY            SKY/WX      TMP DP  RH  WIND    PRES   REMARKS
LA GRANDE       MOCLDY      97  45  17  N12     30.03F HX 93
#COVE           N/A         97  52  22  NW2     29.95F HX 94
#COVE SCHOOL    N/A         96  48  20  W2      30.02F HX 93
#COVE 6NW       N/A         94  42  17  NW8     29.90F HX 90
#ELGIN 3N       N/A         96  47  19  CALM    29.76F HX 92
#ELGIN 1E       N/A         96  44  17  CALM    N/A    HX 92
#IMBLER SCHOOL  N/A         92  48  22  CALM    29.99F HX 89
#ISLAND CITY 4N N/A         93  50  23  N12     29.80F HX 90
#LADD CYN DOT   N/A         96  51  22  N2      N/A    HX 93
#UNION 1S       N/A         96  41  15  NW3     29.77F HX 92
$$

ORZ050-300010-
WALLOWA COUNTY

CITY            SKY/WX      TMP DP  RH  WIND    PRES   REMARKS
JOSEPH AIRPORT  CLOUDY      91  32  12  N3      30.15F HX 87
#ENTERPRISE AP  N/A         92  30  11  NW2     30.06F HX 88
#ENTERPRISE HS  N/A         91  43  19  W2      30.09F HX 87
#IMNAHA SCHOOL  N/A         101 26   7  N2      29.87S HX 95
#IMNAHA 10S     N/A         97  38  13  NE6     30.01S HX 92
#JOSEPH 3N      N/A         88  50  27  CALM    30.13F
#JOSEPH 3W      N/A         92  41  17  CALM    30.01F HX 88
#LOSTINE        N/A         95  43  17  CALM    29.67F HX 91
#MT HOWARD 8000 N/A         70  38  31  N2      30.49R
#PROMISE 1S     N/A         89  49  25  SW10    29.99F
#SHEEP RDG 7000 N/A         74  34  23  CALM    29.88S
#WALLOWA SCHOOL N/A         95  45  18  NW2     30.73S HX 91



$$



USA.gov is the U.S. government's official web portal to all federal, state and local government web resources and services.